| time (UTC) | temp F | wind direction | speed MPH | gust MPH | rain 1hr in | rain 24hr in | rain mn in | humidity % | barometer mb |
| 20260902092518 | 62 | 41 | 2.0 | 6.0 | 0.01 | 0.19 | 0.02 | 96 | 1020.6 |
| 20260902092018 | 62 | 78 | 1.0 | 6.0 | 0.00 | 0.18 | 0.01 | 96 | 1020.6 |
| 20260902091538 | 62 | 0 | 2.0 | 6.0 | 0.00 | 0.18 | 0.01 | 96 | 1020.5 |
| 20260902091016 | 62 | 68 | 1.0 | 4.0 | 0.00 | 0.18 | 0.01 | 96 | 1020.6 |
| 20260902090519 | 62 | 93 | 1.0 | 6.0 | 0.00 | 0.18 | 0.01 | 96 | 1020.5 |
| 20260902090040 | 62 | 341 | 1.0 | 8.0 | 0.00 | 0.18 | 0.01 | 96 | 1020.5 |
| 20260902085518 | 62 | 71 | 2.0 | 8.0 | 0.00 | 0.19 | 0.01 | 96 | 1020.3 |
| 20260902085020 | 62 | 0 | 1.0 | 5.0 | 0.00 | 0.19 | 0.01 | 96 | 1020.3 |
| 20260902084541 | 62 | 51 | 1.0 | 8.0 | 0.00 | 0.19 | 0.01 | 96 | 1020.1 |
| 20260902084019 | 62 | 9 | 2.0 | 10.0 | 0.00 | 0.19 | 0.01 | 96 | 1020.1 |
| 20260902083520 | 62 | 93 | 1.0 | 10.0 | 0.00 | 0.19 | 0.01 | 96 | 1020.1 |
| 20260902083050 | 62 | 51 | 3.0 | 10.0 | 0.00 | 0.19 | 0.01 | 96 | 1020.0 |
| 20260902082521 | 62 | 88 | 1.0 | 9.0 | 0.00 | 0.19 | 0.01 | 96 | 1020.0 |
| 20260902082019 | 62 | 329 | 3.0 | 9.0 | 0.00 | 0.19 | 0.01 | 96 | 1020.0 |
| 20260902081541 | 62 | 338 | 3.0 | 9.0 | 0.00 | 0.19 | 0.01 | 96 | 1019.9 |
| 20260902081021 | 62 | 0 | 1.0 | 6.0 | 0.00 | 0.19 | 0.01 | 96 | 1019.8 |
| 20260902080520 | 62 | 9 | 2.0 | 10.0 | 0.00 | 0.19 | 0.01 | 96 | 1019.7 |
| 20260902080042 | 62 | 334 | 4.0 | 10.0 | 0.00 | 0.19 | 0.01 | 96 | 1019.7 |
| 20260902075517 | 62 | 34 | 2.0 | 7.0 | 0.00 | 0.19 | 0.01 | 96 | 1019.6 |
| 20260902075019 | 62 | 45 | 2.0 | 6.0 | 0.00 | 0.19 | 0.01 | 96 | 1019.7 |
| 20260902074542 | 62 | 265 | 1.0 | 5.0 | 0.00 | 0.19 | 0.01 | 96 | 1019.5 |
| 20260902074018 | 62 | 9 | 2.0 | 5.0 | 0.00 | 0.19 | 0.01 | 96 | 1019.5 |
| 20260902073518 | 62 | 93 | 2.0 | 5.0 | 0.00 | 0.19 | 0.01 | 96 | 1019.6 |
| 20260902073041 | 62 | 309 | 2.0 | 5.0 | 0.00 | 0.19 | 0.01 | 96 | 1019.5 |
| 20260902072519 | 62 | 9 | 2.0 | 5.0 | 0.00 | 0.19 | 0.01 | 96 | 1019.5 |
| 20260902072018 | 62 | 111 | 2.0 | 5.0 | 0.00 | 0.19 | 0.01 | 96 | 1019.5 |
| 20260902071539 | 62 | 51 | 1.0 | 8.0 | 0.00 | 0.19 | 0.01 | 96 | 1019.5 |
| 20260902071016 | 62 | 29 | 2.0 | 8.0 | 0.00 | 0.19 | 0.01 | 96 | 1019.3 |
| 20260902070521 | 62 | 346 | 1.0 | 7.0 | 0.00 | 0.19 | 0.01 | 96 | 1019.4 |
| 20260902070042 | 62 | 51 | 2.0 | 7.0 | 0.00 | 0.19 | 0.01 | 96 | 1019.3 |
| 20260902065527 | 62 | 51 | 1.0 | 4.0 | 0.00 | 0.36 | 0.01 | 96 | 1019.5 |
| 20260902065022 | 62 | 9 | 1.0 | 6.0 | 0.00 | 0.36 | 0.01 | 96 | 1019.5 |
| 20260902064543 | 62 | 41 | 1.0 | 6.0 | 0.00 | 0.36 | 0.01 | 96 | 1019.5 |
| 20260902064019 | 62 | 0 | 2.0 | 7.0 | 0.00 | 0.36 | 0.01 | 96 | 1019.6 |
| 20260902063519 | 62 | 49 | 2.0 | 7.0 | 0.00 | 0.36 | 0.01 | 96 | 1019.6 |
| 20260902063042 | 62 | 0 | 2.0 | 6.0 | 0.00 | 0.36 | 0.01 | 96 | 1019.7 |
| 20260902062518 | 62 | 309 | 2.0 | 7.0 | 0.00 | 0.36 | 0.01 | 96 | 1019.6 |
| 20260902062016 | 62 | 9 | 2.0 | 7.0 | 0.01 | 0.36 | 0.01 | 96 | 1019.6 |
| 20260902061546 | 62 | 0 | 1.0 | 5.0 | 0.01 | 0.36 | 0.01 | 96 | 1019.7 |
| 20260902061021 | 62 | 0 | 2.0 | 6.0 | 0.01 | 0.36 | 0.01 | 96 | 1019.6 |
| 20260902060521 | 62 | 61 | 1.0 | 6.0 | 0.01 | 0.36 | 0.01 | 96 | 1019.7 |
| 20260902060039 | 62 | 20 | 2.0 | 6.0 | 0.01 | 0.36 | 0.01 | 96 | 1019.8 |
| 20260902055521 | 62 | 19 | 1.0 | 9.0 | 0.01 | 0.85 | 0.01 | 96 | 1019.9 |
| 20260902055020 | 62 | 341 | 2.0 | 9.0 | 0.01 | 0.85 | 0.01 | 96 | 1019.8 |
| 20260902054539 | 62 | 330 | 3.0 | 6.0 | 0.01 | 0.85 | 0.01 | 95 | 1019.9 |
| 20260902054028 | 62 | 34 | 2.0 | 5.0 | 0.01 | 0.85 | 0.01 | 96 | 1019.8 |
| 20260902053528 | 62 | 41 | 2.0 | 8.0 | 0.01 | 0.85 | 0.01 | 96 | 1019.7 |
| 20260902053038 | 62 | 38 | 2.0 | 8.0 | 0.01 | 0.85 | 0.01 | 96 | 1019.8 |
| 20260902052521 | 62 | 47 | 2.0 | 5.0 | 0.01 | 0.85 | 0.01 | 96 | 1019.7 |
| 20260902052017 | 62 | 0 | 2.0 | 5.0 | 0.00 | 0.84 | 0.00 | 96 | 1019.6 |
| 20260902051539 | 62 | 47 | 2.0 | 5.0 | 0.00 | 0.84 | 0.00 | 95 | 1019.8 |
| 20260902051016 | 62 | 0 | 2.0 | 6.0 | 0.00 | 0.84 | 0.00 | 95 | 1019.8 |
| 20260902050522 | 62 | 9 | 1.0 | 6.0 | 0.00 | 0.84 | 0.00 | 95 | 1019.8 |
| 20260902050038 | 62 | 44 | 2.0 | 5.0 | 0.00 | 0.84 | 0.00 | 95 | 1019.8 |
| 20260902045520 | 62 | 59 | 1.0 | 5.0 | 0.00 | 1.15 | 0.00 | 95 | 1019.6 |
| 20260902045022 | 62 | 329 | 1.0 | 6.0 | 0.00 | 1.15 | 0.00 | 95 | 1019.6 |
| 20260902044548 | 62 | 30 | 2.0 | 6.0 | 0.00 | 1.15 | 0.00 | 95 | 1019.6 |
| 20260902044025 | 62 | 334 | 2.0 | 5.0 | 0.00 | 1.15 | 0.00 | 95 | 1019.5 |
| 20260902043519 | 62 | 319 | 2.0 | 6.0 | 0.00 | 1.15 | 0.00 | 95 | 1019.6 |
| 20260902043052 | 62 | 291 | 1.0 | 6.0 | 0.00 | 1.15 | 0.00 | 95 | 1019.6 |
| 20260902042519 | 62 | 39 | 2.0 | 5.0 | 0.00 | 1.15 | 0.00 | 95 | 1019.6 |
| 20260902042022 | 62 | 41 | 2.0 | 8.0 | 0.00 | 1.15 | 0.00 | 95 | 1019.6 |
| 20260902041542 | 62 | 51 | 2.0 | 8.0 | 0.00 | 1.15 | 0.00 | 95 | 1019.5 |
| 20260902041021 | 62 | 13 | 2.0 | 8.0 | 0.00 | 1.15 | 0.00 | 95 | 1019.3 |
| 20260902040521 | 62 | 15 | 2.0 | 6.0 | 0.00 | 1.15 | 0.00 | 95 | 1019.3 |
| 20260902040041 | 62 | 32 | 2.0 | 9.0 | 0.00 | 1.15 | 0.00 | 95 | 1019.2 |
| 20260902035521 | 62 | 78 | 2.0 | 9.0 | 0.00 | 1.15 | 1.15 | 95 | 1019.2 |
| 20260902035020 | 62 | 9 | 4.0 | 9.0 | 0.00 | 1.15 | 1.15 | 95 | 1019.1 |
| 20260902034539 | 62 | 123 | 2.0 | 10.0 | 0.00 | 1.15 | 1.15 | 95 | 1019.1 |
| 20260902034020 | 63 | 64 | 3.0 | 10.0 | 0.00 | 1.15 | 1.15 | 95 | 1019.1 |
| 20260902033519 | 63 | 101 | 3.0 | 10.0 | 0.00 | 1.15 | 1.15 | 95 | 1019.0 |
| 20260902033043 | 63 | 9 | 2.0 | 10.0 | 0.00 | 1.15 | 1.15 | 95 | 1018.9 |
| 20260902032518 | 63 | 51 | 2.0 | 12.0 | 0.00 | 1.15 | 1.15 | 95 | 1018.8 |
| 20260902032021 | 63 | 17 | 2.0 | 12.0 | 0.00 | 1.15 | 1.15 | 94 | 1018.7 |
| 20260902031541 | 63 | 86 | 3.0 | 11.0 | 0.00 | 1.15 | 1.15 | 94 | 1018.5 |
| 20260902031022 | 63 | 32 | 3.0 | 9.0 | 0.00 | 1.15 | 1.15 | 94 | 1018.5 |
| 20260902030521 | 63 | 78 | 1.0 | 7.0 | 0.00 | 1.15 | 1.15 | 94 | 1018.6 |
| 20260902030039 | 63 | 85 | 2.0 | 10.0 | 0.00 | 1.15 | 1.15 | 94 | 1018.5 |
| 20260902025521 | 63 | 63 | 3.0 | 10.0 | 0.00 | 1.15 | 1.15 | 94 | 1018.6 |
| 20260902025020 | 63 | 54 | 3.0 | 12.0 | 0.00 | 1.15 | 1.15 | 94 | 1018.6 |
| 20260902024539 | 63 | 65 | 3.0 | 12.0 | 0.00 | 1.15 | 1.15 | 94 | 1018.6 |
| 20260902024020 | 63 | 0 | 3.0 | 10.0 | 0.00 | 1.15 | 1.15 | 94 | 1018.6 |
| 20260902023517 | 63 | 144 | 2.0 | 10.0 | 0.00 | 1.15 | 1.15 | 94 | 1018.6 |
| 20260902023046 | 63 | 90 | 4.0 | 11.0 | 0.00 | 1.15 | 1.15 | 94 | 1018.5 |
| 20260902022518 | 63 | 156 | 3.0 | 11.0 | 0.00 | 1.15 | 1.15 | 94 | 1018.6 |
| 20260902022024 | 63 | 273 | 1.0 | 9.0 | 0.00 | 1.15 | 1.15 | 94 | 1018.4 |
| 20260902021539 | 63 | 13 | 3.0 | 9.0 | 0.00 | 1.15 | 1.15 | 93 | 1018.3 |
| 20260902021020 | 64 | 137 | 2.0 | 9.0 | 0.00 | 1.15 | 1.15 | 93 | 1018.3 |
| 20260902020521 | 64 | 93 | 2.0 | 9.0 | 0.00 | 1.15 | 1.15 | 93 | 1018.3 |
| 20260902020041 | 64 | 34 | 3.0 | 9.0 | 0.00 | 1.15 | 1.15 | 93 | 1018.3 |
| 20260902015519 | 64 | 51 | 3.0 | 10.0 | 0.00 | 1.15 | 1.15 | 93 | 1018.3 |
| 20260902015019 | 64 | 34 | 2.0 | 10.0 | 0.00 | 1.15 | 1.15 | 93 | 1018.1 |
| 20260902014539 | 64 | 61 | 3.0 | 11.0 | 0.00 | 1.15 | 1.15 | 93 | 1018.1 |
| 20260902014019 | 64 | 9 | 2.0 | 11.0 | 0.00 | 1.15 | 1.15 | 93 | 1017.9 |
| 20260902013522 | 64 | 205 | 2.0 | 11.0 | 0.00 | 1.15 | 1.15 | 93 | 1017.9 |
| 20260902013041 | 64 | 9 | 1.0 | 10.0 | 0.00 | 1.15 | 1.15 | 93 | 1017.9 |
| 20260902012519 | 64 | 99 | 3.0 | 11.0 | 0.00 | 1.15 | 1.15 | 93 | 1017.9 |
| 20260902012021 | 64 | 133 | 3.0 | 12.0 | 0.00 | 1.15 | 1.15 | 93 | 1017.7 |
| 20260902011551 | 64 | 64 | 4.0 | 13.0 | 0.00 | 1.15 | 1.15 | 92 | 1017.9 |
| 20260902011021 | 65 | 336 | 3.0 | 13.0 | 0.00 | 1.15 | 1.15 | 92 | 1017.6 |
| 20260902010522 | 65 | 66 | 5.0 | 13.0 | 0.00 | 1.15 | 1.15 | 92 | 1017.4 |
| 20260902010034 | 65 | 123 | 5.0 | 10.0 | 0.00 | 1.15 | 1.15 | 92 | 1017.2 |
| 20260902005521 | 65 | 76 | 2.0 | 10.0 | 0.00 | 1.15 | 1.15 | 92 | 1017.4 |
| 20260902005024 | 65 | 319 | 2.0 | 10.0 | 0.00 | 1.15 | 1.15 | 92 | 1017.4 |
| 20260902004542 | 65 | 74 | 3.0 | 10.0 | 0.00 | 1.15 | 1.15 | 92 | 1017.5 |
| 20260902004022 | 65 | 328 | 4.0 | 10.0 | 0.00 | 1.15 | 1.15 | 92 | 1017.8 |
| 20260902003519 | 65 | 115 | 1.0 | 10.0 | 0.00 | 1.15 | 1.15 | 93 | 1017.5 |
| 20260902003044 | 66 | 59 | 3.0 | 11.0 | 0.00 | 1.15 | 1.15 | 92 | 1017.4 |
| 20260902002520 | 66 | 97 | 4.0 | 12.0 | 0.00 | 1.15 | 1.15 | 92 | 1017.3 |
| 20260902002016 | 66 | 26 | 3.0 | 12.0 | 0.00 | 1.15 | 1.15 | 92 | 1017.0 |
| 20260902001540 | 66 | 45 | 5.0 | 12.0 | 0.00 | 1.15 | 1.15 | 92 | 1016.7 |
| 20260902001018 | 66 | 117 | 4.0 | 11.0 | 0.00 | 1.15 | 1.15 | 93 | 1016.6 |
| 20260902000519 | 67 | 51 | 3.0 | 11.0 | 0.00 | 1.15 | 1.15 | 93 | 1016.9 |
| 20260902000042 | 67 | 32 | 2.0 | 11.0 | 0.00 | 1.15 | 1.15 | 93 | 1016.9 |
| 20260901235521 | 67 | 78 | 3.0 | 12.0 | 0.00 | 1.15 | 1.15 | 93 | 1016.6 |
| 20260901235021 | 67 | 309 | 4.0 | 12.0 | 0.00 | 1.15 | 1.15 | 93 | 1016.7 |
| 20260901234545 | 67 | 325 | 2.0 | 8.0 | 0.00 | 1.15 | 1.15 | 93 | 1016.9 |
| 20260901234019 | 68 | 41 | 2.0 | 9.0 | 0.00 | 1.15 | 1.15 | 94 | 1017.0 |
| 20260901233523 | 68 | 67 | 3.0 | 9.0 | 0.00 | 1.15 | 1.15 | 93 | 1016.8 |
| 20260901233038 | 68 | 59 | 2.0 | 10.0 | 0.00 | 1.15 | 1.15 | 93 | 1016.8 |
| 20260901232517 | 68 | 0 | 2.0 | 10.0 | 0.00 | 1.15 | 1.15 | 94 | 1016.7 |
| 20260901232017 | 69 | 61 | 3.0 | 10.0 | 0.00 | 1.15 | 1.15 | 94 | 1016.5 |
| 20260901231541 | 69 | 76 | 2.0 | 12.0 | 0.00 | 1.15 | 1.15 | 94 | 1016.3 |
| 20260901231018 | 69 | 134 | 4.0 | 12.0 | 0.00 | 1.15 | 1.15 | 94 | 1016.2 |
| 20260901230518 | 70 | 74 | 3.0 | 11.0 | 0.00 | 1.15 | 1.15 | 94 | 1016.4 |
| 20260901230039 | 70 | 100 | 5.0 | 10.0 | 0.00 | 1.15 | 1.15 | 94 | 1016.3 |
| 20260901225521 | 70 | 69 | 2.0 | 10.0 | 0.00 | 1.15 | 1.15 | 94 | 1016.2 |
| 20260901225020 | 70 | 329 | 1.0 | 11.0 | 0.00 | 1.15 | 1.15 | 94 | 1016.2 |
| 20260901224536 | 71 | 93 | 2.0 | 11.0 | 0.00 | 1.15 | 1.15 | 93 | 1015.8 |
| 20260901224021 | 71 | 108 | 5.0 | 11.0 | 0.00 | 1.15 | 1.15 | 93 | 1015.7 |
| 20260901223519 | 72 | 360 | 3.0 | 11.0 | 0.00 | 1.15 | 1.15 | 93 | 1015.8 |
| 20260901223034 | 73 | 43 | 1.0 | 8.0 | 0.00 | 1.15 | 1.15 | 93 | 1015.9 |
| 20260901222517 | 73 | 59 | 2.0 | 8.0 | 0.00 | 1.15 | 1.15 | 93 | 1015.8 |
| 20260901222016 | 74 | 153 | 2.0 | 8.0 | 0.00 | 1.15 | 1.15 | 93 | 1015.8 |
| 20260901221605 | 74 | 57 | 1.0 | 8.0 | 0.00 | 1.15 | 1.15 | 93 | 1015.6 |
| 20260901221016 | 74 | 98 | 2.0 | 8.0 | 0.00 | 1.15 | 1.15 | 93 | 1015.7 |
| 20260901220524 | 74 | 148 | 3.0 | 8.0 | 0.00 | 1.15 | 1.15 | 93 | 1015.8 |
| 20260901220049 | 75 | 86 | 2.0 | 6.0 | 0.00 | 1.15 | 1.15 | 93 | 1015.8 |
| 20260901215519 | 75 | 26 | 1.0 | 8.0 | 0.00 | 1.15 | 1.15 | 93 | 1015.7 |
| 20260901215021 | 75 | 119 | 1.0 | 8.0 | 0.00 | 1.15 | 1.15 | 92 | 1015.7 |
| 20260901214534 | 75 | 87 | 1.0 | 5.0 | 0.00 | 1.15 | 1.15 | 92 | 1015.8 |
| 20260901214019 | 75 | 212 | 1.0 | 5.0 | 0.00 | 1.15 | 1.15 | 92 | 1015.8 |
| 20260901213518 | 75 | 38 | 1.0 | 5.0 | 0.00 | 1.15 | 1.15 | 92 | 1015.8 |
| 20260901213051 | 76 | 26 | 1.0 | 6.0 | 0.00 | 1.15 | 1.15 | 92 | 1015.9 |
| 20260901212516 | 76 | 59 | 1.0 | 6.0 | 0.00 | 1.15 | 1.15 | 92 | 1015.9 |
| 20260901212017 | 76 | 178 | 0.0 | 6.0 | 0.00 | 1.15 | 1.15 | 92 | 1015.8 |
| 20260901211536 | 76 | 146 | 2.0 | 6.0 | 0.00 | 1.15 | 1.15 | 91 | 1015.8 |
| 20260901211018 | 76 | 45 | 2.0 | 6.0 | 0.00 | 1.15 | 1.15 | 91 | 1015.8 |
| 20260901210521 | 76 | 9 | 2.0 | 6.0 | 0.00 | 1.15 | 1.15 | 91 | 1015.6 |
| 20260901210038 | 76 | 67 | 1.0 | 6.0 | 0.00 | 1.15 | 1.15 | 90 | 1015.7 |
| 20260901205519 | 77 | 137 | 1.0 | 6.0 | 0.00 | 1.15 | 1.15 | 90 | 1015.7 |
| 20260901205024 | 77 | 93 | 1.0 | 5.0 | 0.00 | 1.15 | 1.15 | 90 | 1015.7 |
| 20260901204535 | 77 | 93 | 1.0 | 5.0 | 0.00 | 1.15 | 1.15 | 89 | 1015.8 |
| 20260901204018 | 77 | 93 | 1.0 | 5.0 | 0.00 | 1.15 | 1.15 | 88 | 1015.7 |
| 20260901203524 | 77 | 0 | 0.0 | 4.0 | 0.00 | 1.15 | 1.15 | 87 | 1015.7 |
| 20260901203041 | 77 | 205 | 1.0 | 4.0 | 0.00 | 1.15 | 1.15 | 86 | 1015.6 |
| 20260901202519 | 77 | 212 | 1.0 | 4.0 | 0.00 | 1.15 | 1.15 | 87 | 1015.6 |
| 20260901202019 | 77 | 146 | 0.0 | 5.0 | 0.00 | 1.15 | 1.15 | 87 | 1015.7 |
| 20260901201542 | 77 | 162 | 2.0 | 5.0 | 0.00 | 1.15 | 1.15 | 87 | 1015.7 |
| 20260901201021 | 77 | 144 | 1.0 | 4.0 | 0.00 | 1.15 | 1.15 | 87 | 1015.7 |
| 20260901200520 | 77 | 168 | 1.0 | 3.0 | 0.00 | 1.15 | 1.15 | 87 | 1015.8 |
| 20260901200105 | 78 | 0 | 1.0 | 3.0 | 0.00 | 1.15 | 1.15 | 86 | 1015.7 |
| 20260901195519 | 78 | 149 | 0.0 | 4.0 | 0.00 | 1.15 | 1.15 | 87 | 1015.8 |
| 20260901195018 | 78 | 0 | 0.0 | 4.0 | 0.00 | 1.15 | 1.15 | 88 | 1015.8 |
| 20260901194554 | 78 | 217 | 1.0 | 4.0 | 0.00 | 1.15 | 1.15 | 87 | 1015.7 |
| 20260901194022 | 77 | 295 | 1.0 | 5.0 | 0.00 | 1.15 | 1.15 | 87 | 1015.7 |
| 20260901193518 | 77 | 153 | 1.0 | 5.0 | 0.00 | 1.15 | 1.15 | 87 | 1015.7 |
| 20260901193048 | 77 | 111 | 1.0 | 6.0 | 0.00 | 1.15 | 1.15 | 88 | 1015.7 |
| 20260901192521 | 77 | 196 | 3.0 | 6.0 | 0.00 | 1.15 | 1.15 | 86 | 1015.8 |
| 20260901192022 | 77 | 242 | 2.0 | 6.0 | 0.00 | 1.15 | 1.15 | 88 | 1015.8 |
| 20260901191619 | 76 | 141 | 3.0 | 6.0 | 0.00 | 1.15 | 1.15 | 88 | 1015.8 |
| 20260901191019 | 76 | 221 | 1.0 | 5.0 | 0.00 | 1.15 | 1.15 | 89 | 1015.7 |
| 20260901190524 | 76 | 9 | 1.0 | 4.0 | 0.00 | 1.15 | 1.15 | 91 | 1015.7 |
| 20260901190036 | 75 | 0 | 1.0 | 4.0 | 0.00 | 1.15 | 1.15 | 91 | 1015.7 |
| 20260901185520 | 75 | 205 | 1.0 | 4.0 | 0.00 | 1.15 | 1.15 | 93 | 1015.7 |
| 20260901185019 | 75 | 217 | 1.0 | 5.0 | 0.00 | 1.15 | 1.15 | 94 | 1015.7 |
| 20260901184539 | 74 | 227 | 2.0 | 7.0 | 0.00 | 1.15 | 1.15 | 94 | 1015.5 |
| 20260901184018 | 74 | 119 | 1.0 | 7.0 | 0.00 | 1.15 | 1.15 | 95 | 1015.5 |
| 20260901183517 | 74 | 126 | 2.0 | 6.0 | 0.00 | 1.15 | 1.15 | 95 | 1015.7 |
| 20260901183049 | 74 | 207 | 2.0 | 5.0 | 0.00 | 1.15 | 1.15 | 96 | 1015.8 |
| 20260901182519 | 74 | 83 | 1.0 | 4.0 | 0.00 | 1.15 | 1.15 | 96 | 1015.9 |
| 20260901182024 | 73 | 238 | 1.0 | 4.0 | 0.00 | 1.15 | 1.15 | 96 | 1015.9 |
| 20260901181551 | 73 | 257 | 1.0 | 4.0 | 0.00 | 1.15 | 1.15 | 96 | 1016.0 |
| 20260901181020 | 73 | 205 | 1.0 | 7.0 | 0.00 | 1.15 | 1.15 | 96 | 1015.9 |
| 20260901180521 | 73 | 168 | 1.0 | 7.0 | 0.00 | 1.15 | 1.15 | 96 | 1015.8 |
| 20260901180044 | 74 | 196 | 1.0 | 6.0 | 0.00 | 1.15 | 1.15 | 97 | 1015.8 |
| 20260901175521 | 73 | 76 | 1.0 | 6.0 | 0.00 | 1.15 | 1.15 | 96 | 1015.7 |
| 20260901175019 | 73 | 137 | 1.0 | 6.0 | 0.00 | 1.15 | 1.15 | 96 | 1015.8 |
| 20260901174543 | 73 | 149 | 1.0 | 6.0 | 0.00 | 1.15 | 1.15 | 97 | 1015.8 |
| 20260901174018 | 73 | 242 | 2.0 | 8.0 | 0.00 | 1.15 | 1.15 | 96 | 1015.7 |
| 20260901173523 | 73 | 200 | 2.0 | 8.0 | 0.00 | 1.15 | 1.15 | 96 | 1015.7 |
| 20260901173037 | 72 | 205 | 1.0 | 7.0 | 0.01 | 1.15 | 1.15 | 97 | 1015.7 |
| 20260901172519 | 72 | 149 | 1.0 | 6.0 | 0.01 | 1.15 | 1.15 | 97 | 1015.8 |
| 20260901172022 | 72 | 9 | 1.0 | 5.0 | 0.01 | 1.15 | 1.15 | 97 | 1015.9 |
| 20260901171539 | 71 | 193 | 2.0 | 5.0 | 0.02 | 1.15 | 1.15 | 96 | 1015.8 |
| 20260901171019 | 71 | 210 | 2.0 | 5.0 | 0.02 | 1.15 | 1.15 | 96 | 1015.8 |
| 20260901170518 | 71 | 146 | 1.0 | 5.0 | 0.02 | 1.15 | 1.15 | 97 | 1015.9 |
| 20260901170051 | 71 | 119 | 1.0 | 7.0 | 0.02 | 1.15 | 1.15 | 96 | 1015.9 |
| 20260901165516 | 71 | 165 | 2.0 | 8.0 | 0.02 | 1.15 | 1.15 | 97 | 1015.8 |
| 20260901165020 | 71 | 209 | 3.0 | 8.0 | 0.02 | 1.15 | 1.15 | 96 | 1015.6 |
| 20260901164540 | 71 | 198 | 2.0 | 6.0 | 0.03 | 1.15 | 1.15 | 96 | 1015.7 |
| 20260901164021 | 71 | 205 | 1.0 | 4.0 | 0.06 | 1.15 | 1.15 | 96 | 1015.8 |
| 20260901163519 | 71 | 178 | 0.0 | 3.0 | 0.07 | 1.15 | 1.15 | 96 | 1016.1 |
| 20260901163042 | 71 | 187 | 0.0 | 3.0 | 0.07 | 1.14 | 1.14 | 96 | 1016.3 |
| 20260901162517 | 71 | 221 | 0.0 | 3.0 | 0.08 | 1.14 | 1.14 | 96 | 1016.3 |
| 20260901162020 | 71 | 0 | 0.0 | 3.0 | 0.09 | 1.14 | 1.14 | 96 | 1016.2 |
| 20260901161541 | 71 | 83 | 1.0 | 3.0 | 0.09 | 1.13 | 1.13 | 96 | 1016.2 |
| 20260901161016 | 71 | 0 | 1.0 | 3.0 | 0.10 | 1.13 | 1.13 | 97 | 1016.4 |
| 20260901160520 | 71 | 41 | 1.0 | 3.0 | 0.10 | 1.13 | 1.13 | 97 | 1016.5 |
| 20260901155519 | 70 | 0 | 0.0 | 5.0 | 0.10 | 1.13 | 1.13 | 97 | 1016.9 |
| 20260901155019 | 70 | 205 | 1.0 | 5.0 | 0.10 | 1.13 | 1.13 | 96 | 1017.0 |
| 20260901154538 | 70 | 238 | 1.0 | 5.0 | 0.09 | 1.11 | 1.11 | 96 | 1016.9 |
| 20260901154021 | 70 | 170 | 1.0 | 5.0 | 0.07 | 1.09 | 1.09 | 96 | 1017.0 |
| 20260901153521 | 70 | 149 | 1.0 | 5.0 | 0.07 | 1.08 | 1.08 | 96 | 1017.0 |
| 20260901153041 | 70 | 162 | 1.0 | 4.0 | 0.06 | 1.07 | 1.07 | 96 | 1017.2 |
| 20260901152520 | 70 | 137 | 0.0 | 5.0 | 0.06 | 1.05 | 1.05 | 97 | 1017.2 |
| 20260901152020 | 70 | 153 | 1.0 | 5.0 | 0.05 | 1.04 | 1.04 | 96 | 1017.2 |
| 20260901151544 | 70 | 221 | 2.0 | 5.0 | 0.05 | 1.04 | 1.04 | 96 | 1017.1 |
| 20260901151017 | 70 | 188 | 1.0 | 5.0 | 0.04 | 1.03 | 1.03 | 96 | 1016.8 |
| 20260901150524 | 70 | 165 | 2.0 | 5.0 | 0.04 | 1.03 | 1.03 | 96 | 1016.9 |
| 20260901150045 | 70 | 205 | 1.0 | 6.0 | 0.05 | 1.03 | 1.03 | 96 | 1016.8 |
| 20260901145521 | 70 | 185 | 2.0 | 6.0 | 0.05 | 1.03 | 1.03 | 96 | 1017.1 |
| 20260901145018 | 70 | 0 | 1.0 | 3.0 | 0.05 | 1.03 | 1.03 | 96 | 1017.2 |
| 20260901144546 | 70 | 0 | 1.0 | 3.0 | 0.04 | 1.02 | 1.02 | 96 | 1017.2 |
| 20260901144019 | 70 | 137 | 1.0 | 3.0 | 0.04 | 1.02 | 1.02 | 96 | 1017.1 |
| 20260901143519 | 69 | 0 | 0.0 | 3.0 | 0.03 | 1.01 | 1.01 | 96 | 1017.2 |
| 20260901143052 | 69 | 195 | 1.0 | 5.0 | 0.02 | 1.00 | 1.00 | 96 | 1017.1 |
| 20260901142517 | 69 | 171 | 1.0 | 5.0 | 0.02 | 1.00 | 1.00 | 96 | 1017.0 |
| 20260901142023 | 69 | 200 | 1.0 | 4.0 | 0.02 | 1.00 | 1.00 | 96 | 1017.0 |
| 20260901141541 | 69 | 243 | 1.0 | 4.0 | 0.01 | 0.99 | 0.99 | 96 | 1017.3 |
| 20260901141021 | 69 | 105 | 1.0 | 4.0 | 0.01 | 0.99 | 0.99 | 96 | 1017.4 |
| 20260901140521 | 69 | 265 | 2.0 | 3.0 | 0.00 | 0.98 | 0.98 | 96 | 1017.6 |
| 20260901140118 | 69 | 67 | 1.0 | 3.0 | 0.00 | 0.98 | 0.98 | 96 | 1017.5 |
| 20260901135518 | 69 | 115 | 1.0 | 3.0 | 0.00 | 0.98 | 0.98 | 96 | 1017.1 |
| 20260901135018 | 69 | 61 | 1.0 | 3.0 | 0.00 | 0.98 | 0.98 | 96 | 1017.3 |
| 20260901134541 | 69 | 51 | 1.0 | 2.0 | 0.00 | 0.98 | 0.98 | 96 | 1017.2 |
| 20260901134022 | 69 | 61 | 1.0 | 3.0 | 0.00 | 0.98 | 0.98 | 96 | 1017.1 |
| 20260901133519 | 69 | 123 | 1.0 | 3.0 | 0.00 | 0.98 | 0.98 | 96 | 1017.0 |
| 20260901133041 | 69 | 30 | 1.0 | 3.0 | 0.00 | 0.98 | 0.98 | 96 | 1016.9 |
| 20260901132519 | 69 | 0 | 1.0 | 3.0 | 0.00 | 0.98 | 0.98 | 96 | 1017.0 |
| 20260901132022 | 69 | 119 | 1.0 | 3.0 | 0.00 | 0.98 | 0.98 | 96 | 1017.0 |
| 20260901131543 | 69 | 61 | 1.0 | 2.0 | 0.00 | 0.98 | 0.98 | 96 | 1017.0 |
| 20260901131023 | 69 | 0 | 0.0 | 2.0 | 0.00 | 0.98 | 0.98 | 96 | 1017.0 |
| 20260901130522 | 69 | 232 | 0.0 | 3.0 | 0.00 | 0.98 | 0.98 | 96 | 1016.9 |
| 20260901130044 | 69 | 0 | 1.0 | 3.0 | 0.00 | 0.98 | 0.98 | 96 | 1016.9 |
| 20260901125520 | 69 | 0 | 0.0 | 3.0 | 0.00 | 0.98 | 0.98 | 96 | 1017.0 |
| 20260901125016 | 69 | 0 | 1.0 | 3.0 | 0.00 | 0.98 | 0.98 | 96 | 1017.0 |
| 20260901124540 | 69 | 0 | 1.0 | 3.0 | 0.00 | 0.98 | 0.98 | 96 | 1017.0 |
| 20260901124025 | 69 | 61 | 1.0 | 4.0 | 0.00 | 0.98 | 0.98 | 96 | 1017.1 |
| 20260901123523 | 69 | 0 | 1.0 | 4.0 | 0.00 | 0.98 | 0.98 | 96 | 1017.2 |
| 20260901123043 | 69 | 67 | 1.0 | 3.0 | 0.00 | 0.98 | 0.98 | 96 | 1017.2 |
| 20260901122521 | 69 | 34 | 1.0 | 3.0 | 0.00 | 0.98 | 0.98 | 96 | 1017.2 |
| 20260901122018 | 69 | 51 | 1.0 | 3.0 | 0.00 | 0.98 | 0.98 | 96 | 1017.3 |
| 20260901121543 | 69 | 59 | 1.0 | 3.0 | 0.00 | 0.98 | 0.98 | 96 | 1017.2 |
| 20260901121019 | 69 | 0 | 1.0 | 2.0 | 0.00 | 0.98 | 0.98 | 96 | 1017.0 |
| 20260901120521 | 69 | 126 | 1.0 | 2.0 | 0.00 | 0.98 | 0.98 | 96 | 1017.2 |
| 20260901120041 | 69 | 153 | 0.0 | 3.0 | 0.00 | 0.98 | 0.98 | 96 | 1017.3 |
| 20260901115519 | 68 | 93 | 0.0 | 3.0 | 0.00 | 0.98 | 0.98 | 96 | 1017.3 |
| 20260901115028 | 68 | 119 | 0.0 | 2.0 | 0.00 | 0.98 | 0.98 | 96 | 1017.1 |
| 20260901114539 | 68 | 9 | 0.0 | 2.0 | 0.00 | 0.98 | 0.98 | 96 | 1017.3 |
| 20260901114019 | 68 | 0 | 0.0 | 4.0 | 0.00 | 0.98 | 0.98 | 96 | 1017.1 |
| 20260901113528 | 68 | 68 | 0.0 | 4.0 | 0.00 | 0.98 | 0.98 | 96 | 1017.0 |
| 20260901113043 | 68 | 162 | 1.0 | 4.0 | 0.00 | 0.98 | 0.98 | 96 | 1016.8 |
| 20260901112522 | 68 | 61 | 0.0 | 2.0 | 0.00 | 0.98 | 0.98 | 96 | 1016.8 |
| 20260901112020 | 68 | 137 | 0.0 | 2.0 | 0.00 | 0.98 | 0.98 | 96 | 1016.8 |
| 20260901111542 | 68 | 137 | 0.0 | 2.0 | 0.00 | 0.98 | 0.98 | 96 | 1017.0 |
| 20260901111021 | 68 | 72 | 1.0 | 2.0 | 0.00 | 0.98 | 0.98 | 96 | 1017.1 |
| 20260901110519 | 68 | 0 | 0.0 | 2.0 | 0.00 | 0.98 | 0.98 | 96 | 1017.1 |
| 20260901110040 | 68 | 0 | 1.0 | 2.0 | 0.00 | 0.98 | 0.98 | 96 | 1017.0 |
| 20260901105525 | 68 | 153 | 0.0 | 2.0 | 0.00 | 0.98 | 0.98 | 96 | 1017.2 |
| 20260901105021 | 68 | 0 | 0.0 | 2.0 | 0.00 | 0.98 | 0.98 | 96 | 1017.4 |
| 20260901104538 | 68 | 0 | 0.0 | 1.0 | 0.00 | 0.98 | 0.98 | 96 | 1017.1 |
| 20260901104021 | 68 | 0 | 0.0 | 2.0 | 0.00 | 0.98 | 0.98 | 96 | 1017.1 |
| 20260901103521 | 68 | 0 | 0.0 | 2.0 | 0.00 | 0.98 | 0.98 | 96 | 1017.2 |
| 20260901103044 | 68 | 9 | 0.0 | 3.0 | 0.00 | 0.98 | 0.98 | 96 | 1017.3 |
| 20260901102521 | 67 | 108 | 0.0 | 3.0 | 0.00 | 0.98 | 0.98 | 96 | 1017.2 |
| 20260901102021 | 68 | 334 | 1.0 | 3.0 | 0.00 | 0.98 | 0.98 | 96 | 1017.2 |
| 20260901101555 | 67 | 108 | 0.0 | 2.0 | 0.00 | 0.98 | 0.98 | 96 | 1017.0 |
| 20260901101020 | 67 | 0 | 0.0 | 2.0 | 0.00 | 0.98 | 0.98 | 96 | 1016.9 |
| 20260901100517 | 67 | 325 | 0.0 | 2.0 | 0.00 | 0.98 | 0.98 | 96 | 1016.8 |
| 20260901100048 | 67 | 129 | 0.0 | 2.0 | 0.00 | 0.98 | 0.98 | 96 | 1016.8 |
| 20260901095520 | 67 | 0 | 0.0 | 2.0 | 0.00 | 0.98 | 0.98 | 96 | 1016.8 |
| 20260901095018 | 67 | 0 | 0.0 | 2.0 | 0.00 | 0.98 | 0.98 | 96 | 1017.0 |
| 20260901094545 | 67 | 51 | 0.0 | 3.0 | 0.00 | 0.98 | 0.98 | 96 | 1016.9 |
| 20260901094019 | 67 | 0 | 0.0 | 3.0 | 0.00 | 0.98 | 0.98 | 96 | 1017.0 |
| 20260901093519 | 67 | 0 | 0.0 | 2.0 | 0.00 | 0.98 | 0.98 | 96 | 1016.9 |
| 20260901093042 | 67 | 0 | 0.0 | 2.0 | 0.00 | 0.98 | 0.98 | 96 | 1017.0 |